GW4379 Weather Reports


time (UTC)temp
F
wind
direction
speed
knots
gust
knots
rain 1hr
in
rain 24hr
in
rain mn
in
humidity
%
barometer
mb
20260506091549 61 178 0.9 3.5 0.00 0.30 0.30 83 1013.1
20260506090048 61 161 0.9 1.7 0.01 0.30 0.30 86 1013.0
20260506084616 60 172 0.9 1.7 0.24 0.30 0.30 87 1012.9
20260506083052 60 0 0.0 1.7 0.30 0.30 0.30 88 1013.3
20260506081556 61 0 0.0 1.7 0.30 0.30 0.30 87 1013.3
20260506073047 65 179 1.7 3.5 0.00 0.00 0.00 72 1013.6
20260506071548 65 183 1.7 5.2 0.00 0.00 0.00 71 1013.3
20260506061554 66 144 0.9 6.1 0.00 0.00 0.00 67 1013.5
20260506044552 62 126 0.0 1.7 0.00 0.00 0.00 71 1013.4
20260506043049 63 126 0.0 1.7 0.00 0.00 0.00 70 1013.4
20260506041604 63 126 0.0 1.7 0.00 0.00 0.00 70 1013.5
20260506040054 63 0 0.0 1.7 0.00 0.00 0.00 69 1013.3
20260506034556 64 0 0.0 1.7 0.00 0.00 0.00 66 1013.2
20260506033054 65 0 0.0 0.0 0.00 0.00 0.00 64 1013.3
20260506031553 65 0 0.0 0.0 0.00 0.00 0.00 64 1013.4
20260506030052 65 0 0.0 1.7 0.00 0.00 0.00 62 1013.6
20260506024552 66 126 0.0 1.7 0.00 0.00 0.00 62 1013.6
20260506023104 67 0 0.0 0.9 0.00 0.00 0.00 59 1013.5
20260506021612 68 0 0.0 1.7 0.00 0.00 0.00 55 1013.1
20260506020053 70 126 0.0 1.7 0.00 0.00 0.00 53 1013.3
20260506014553 71 126 0.0 1.7 0.00 0.00 0.00 52 1013.1
20260506013101 72 163 0.0 2.6 0.00 0.00 0.00 49 1013.2
20260506011614 72 196 1.7 5.2 0.00 0.00 0.00 48 1013.3
20260506010057 73 207 1.7 3.5 0.00 0.00 0.00 47 1013.2
20260506004556 73 210 1.7 6.1 0.00 0.00 0.00 46 1013.0
20260506003055 73 175 1.7 4.3 0.00 0.00 0.00 46 1013.0
20260506001557 74 189 0.9 3.5 0.00 0.00 0.00 45 1013.0
20260506000057 74 202 1.7 5.2 0.00 0.00 0.00 44 1013.1
20260505234555 75 187 2.6 6.1 0.00 0.00 0.00 43 1013.3
20260505233106 75 180 3.5 9.6 0.00 0.00 0.00 42 1013.0
20260505231612 76 201 2.6 10.4 0.00 0.00 0.00 40 1013.0
20260505230053 76 156 3.5 10.4 0.00 0.00 0.00 41 1013.1
20260505224555 77 156 4.3 11.3 0.00 0.00 0.00 40 1013.1
20260505223053 77 186 4.3 8.7 0.00 0.00 0.00 40 1013.1
20260505221552 78 160 3.5 10.4 0.00 0.00 0.00 39 1013.2
20260505220059 78 209 5.2 9.6 0.00 0.00 0.00 38 1013.3
20260505214556 78 175 2.6 9.6 0.00 0.00 0.00 39 1013.3
20260505213052 78 238 3.5 12.2 0.00 0.00 0.00 37 1013.2
20260505211549 79 205 3.5 7.8 0.00 0.00 0.00 38 1013.3
20260505210051 77 213 6.1 10.4 0.00 0.00 0.00 39 1013.3
20260505204553 76 232 4.3 11.3 0.00 0.00 0.00 39 1013.6
20260505203110 77 134 4.3 11.3 0.00 0.00 0.00 38 1013.5
20260505201600 77 188 3.5 10.4 0.00 0.00 0.00 38 1013.6
20260505200053 77 164 4.3 10.4 0.00 0.00 0.00 39 1013.9
20260505194613 77 192 3.5 11.3 0.00 0.00 0.00 39 1014.3
20260505193052 76 322 5.2 12.2 0.00 0.00 0.00 39 1014.8
20260505191600 76 185 5.2 12.2 0.00 0.00 0.00 41 1014.9
20260505190048 76 295 1.7 9.6 0.00 0.00 0.00 42 1015.1
20260505184548 75 159 6.1 12.2 0.00 0.00 0.00 40 1015.2
20260505183053 76 274 5.2 14.8 0.00 0.00 0.00 39 1015.3
20260505181554 75 223 5.2 16.5 0.00 0.00 0.00 35 1015.4
20260505180100 75 153 6.1 13.9 0.00 0.00 0.00 38 1015.7
20260505174552 75 288 5.2 10.4 0.00 0.00 0.00 40 1016.2
20260505173056 75 145 6.1 14.8 0.00 0.00 0.00 41 1016.2
20260505171554 74 263 4.3 11.3 0.00 0.00 0.00 40 1016.1
20260505170109 74 279 4.3 7.8 0.00 0.00 0.00 47 1015.9
20260505164553 72 189 4.3 10.4 0.00 0.00 0.00 46 1016.1
20260505163049 73 295 2.6 10.4 0.00 0.00 0.00 46 1016.3
20260505161613 72 162 4.3 10.4 0.00 0.00 0.00 50 1016.4
20260505153103 71 164 3.5 8.7 0.00 0.00 0.00 53 1016.6
20260505151605 70 238 2.6 8.7 0.00 0.00 0.00 51 1017.1
20260505124557 59 0 0.0 1.7 0.00 0.00 0.00 72 1016.3
20260505123057 58 169 0.9 1.7 0.00 0.00 0.00 72 1016.2
20260505121612 56 0 0.0 1.7 0.00 0.00 0.00 75 1016.2
20260505120056 54 229 0.0 0.9 0.00 0.00 0.00 83 1016.1
20260505114552 51 0 0.0 1.7 0.00 0.00 0.00 87 1015.8
20260505113049 50 0 0.0 1.7 0.00 0.00 0.00 87 1015.9
20260505111547 50 0 0.0 1.7 0.00 0.00 0.00 85 1015.9
20260505101555 51 95 0.0 1.7 0.00 0.00 0.00 82 1015.5
20260505100050 51 0 0.0 1.7 0.00 0.00 0.00 81 1015.4
20260505094549 51 0 0.0 1.7 0.00 0.00 0.00 81 1015.5
20260505093048 51 0 0.0 1.7 0.00 0.00 0.00 81 1015.5